User: anonymous   Login
Location: Deer Lake
(49.1830°N, 57.4330°W)
Time: 02:09:21
(UTC-02:-30)
Language:

Cosmos 1707 - Orbit

View from above orbital plane
View from above orbital plane
View from above satellite
View from above satellite

Ground track
Ground track

The orbit data is extracted from the following two-line orbital elements,

1 16326U 85113A   15187.45861669  .00001987  00000-0  11602-3 0  9991
2 16326 082.5134 186.6347 0010163 232.2705 127.7605 15.11347387609766
Epoch (UTC): 06 July 2015 11:00:24
Eccentricity: 0.0010163
inclination: 82.5134°
perigee height: 525 km
apogee height: 539 km
right ascension of ascending node: 186.6347°
argument of perigee: 232.2705°
revolutions per day: 15.11347387
mean anomaly at epoch: 127.7605°
orbit number at epoch: 60976

The dashed part of the orbit path shows where the satellite is in the earth's shadow,  

DLR